Date String (YYYY-MM-DD hh:mm:ss) UTC,Instrument flags,Ambient pressure (hPa),Sample flow (lpm),Bypass flow (lpm),Sample temperature (°C),Ambient temperature (°C),ASC tube jacket temperature (°C),LED temperature (°C),Box temperature (°C),Sample RH (%),Span deviation,Mass concentration (μg/m³),Mass concentration (μg/m³),Mass concentration (μg/m³)
DateTimeUTC,F1_M11,P_M11,Q1_M11,Q2_M11,T1_M11,T2_M11,T3_M11,T4_M11,T5_M11,U1_M11,ZSPAN_M11,X0_M11,X2_M11,X1_M11
2021-12-14 07:00:00,,0823.3,5.00,0.00,26.8,25.8,00.0,35.8,28.5,06.4,0000.0,0013.54,0004.35,0003.18
2021-12-14 07:01:00,,0823.4,4.99,0.00,26.8,25.8,00.0,35.8,28.5,06.4,0000.0,0013.90,0004.47,0003.23
2021-12-14 07:02:00,,0823.4,5.00,0.00,26.8,25.8,00.0,35.7,28.5,06.3,0000.0,0014.31,0004.52,0003.25
2021-12-14 07:03:00,,0823.5,4.99,0.00,26.7,25.8,00.0,35.7,28.5,06.3,0000.0,0013.82,0004.58,0003.27
2021-12-14 07:04:00,,0823.6,5.00,0.00,26.7,25.8,00.0,35.7,28.5,06.2,0000.0,0015.05,0004.61,0003.27
2021-12-14 07:05:00,,0823.5,5.00,0.00,26.7,25.8,00.0,35.7,28.5,06.2,0000.0,0015.72,0004.63,0003.29
2021-12-14 07:06:00,,0823.6,5.01,0.00,26.7,25.8,00.0,35.7,28.5,06.2,0000.0,0016.03,0004.67,0003.32
2021-12-14 07:07:00,,0823.6,5.00,0.00,26.7,25.8,00.0,35.7,28.5,06.2,0000.0,0016.70,0004.71,0003.36
2021-12-14 07:08:00,,0823.7,5.00,0.00,26.7,25.8,00.0,35.7,28.4,06.2,0000.0,0016.71,0004.75,0003.38
2021-12-14 07:09:00,,0823.7,5.00,0.00,26.7,25.8,00.0,35.7,28.4,06.3,0000.0,0016.36,0004.87,0003.44
2021-12-14 07:10:00,,0823.7,4.99,0.00,26.7,25.8,00.0,35.7,28.5,06.2,0000.0,0016.45,0004.88,0003.47
2021-12-14 07:11:00,,0823.6,4.99,0.00,26.7,25.8,00.0,35.7,28.4,06.2,0000.0,0017.02,0004.81,0003.43
2021-12-14 07:12:00,,0823.5,5.00,0.00,26.7,25.8,00.0,35.7,28.5,06.2,0000.0,0017.09,0004.70,0003.36
2021-12-14 07:13:00,,0823.5,5.00,0.00,26.7,25.8,00.0,35.7,28.5,06.2,0000.0,0016.33,0004.65,0003.31
2021-12-14 07:14:00,,0823.5,4.99,0.00,26.7,25.8,00.0,35.7,28.4,06.3,0000.0,0016.50,0004.61,0003.30
2021-12-14 07:15:00,,0823.5,5.00,0.00,26.7,25.8,00.0,35.7,28.4,06.2,0000.0,0015.55,0004.63,0003.32
2021-12-14 07:16:00,,0823.3,5.01,0.00,26.7,25.7,00.0,35.7,28.4,06.2,0000.0,0014.73,0004.59,0003.33
2021-12-14 07:17:00,,0823.4,4.98,0.00,26.7,25.7,00.0,35.7,28.4,06.2,0000.0,0015.08,0004.63,0003.34
2021-12-14 07:18:00,,0823.4,5.01,0.00,26.7,25.7,00.0,35.7,28.4,06.3,0000.0,0014.77,0004.68,0003.37
2021-12-14 07:19:00,,0823.3,4.99,0.00,26.7,25.7,00.0,35.6,28.5,06.4,0000.0,0014.78,0004.80,0003.42
2021-12-14 07:20:00,,0823.4,5.01,0.00,26.7,25.7,00.0,35.6,28.4,06.4,0000.0,0015.53,0004.81,0003.44
2021-12-14 07:21:00,,0823.3,5.00,0.00,26.6,25.7,00.0,35.6,28.3,06.4,0000.0,0016.31,0004.85,0003.45
2021-12-14 07:22:00,,0823.4,4.99,0.00,26.6,25.7,00.0,35.6,28.3,06.3,0000.0,0017.01,0004.93,0003.47
2021-12-14 07:23:00,,0823.3,5.00,0.00,26.6,25.7,00.0,35.6,28.2,06.4,0000.0,0017.05,0004.97,0003.49
2021-12-14 07:24:00,,0823.3,5.00,0.00,26.5,25.6,00.0,35.6,28.1,06.4,0000.0,0016.49,0004.92,0003.50
2021-12-14 07:25:00,,0823.4,4.99,0.00,26.5,25.5,00.0,35.6,28.1,06.4,0000.0,0016.17,0004.98,0003.52
2021-12-14 07:26:00,,0823.2,5.01,0.00,26.5,25.5,00.0,35.6,28.2,06.4,0000.0,0016.03,0004.99,0003.53
2021-12-14 07:27:00,,0823.2,4.99,0.00,26.5,25.5,00.0,35.5,28.2,06.4,0000.0,0017.02,0005.01,0003.54
2021-12-14 07:28:00,,0823.3,5.02,0.00,26.5,25.5,00.0,35.5,28.2,06.4,0000.0,0017.16,0005.04,0003.56
2021-12-14 07:29:00,,0823.4,5.00,0.00,26.5,25.6,00.0,35.5,28.3,06.4,0000.0,0017.71,0005.04,0003.56
2021-12-14 07:30:00,,0823.3,5.01,0.00,26.5,25.6,00.0,35.5,28.2,06.4,0000.0,0017.55,0004.96,0003.55
2021-12-14 07:31:00,,0823.4,4.99,0.00,26.5,25.6,00.0,35.5,28.3,06.4,0000.0,0017.38,0004.94,0003.54
2021-12-14 07:32:00,,0823.3,5.00,0.00,26.5,25.6,00.0,35.5,28.3,06.4,0000.0,0016.77,0004.92,0003.53
2021-12-14 07:33:00,,0823.4,4.99,0.00,26.5,25.6,00.0,35.5,28.2,06.4,0000.0,0016.41,0004.89,0003.53
2021-12-14 07:34:00,,0823.4,5.01,0.00,26.4,25.5,00.0,35.5,28.1,06.4,0000.0,0016.50,0004.85,0003.53
2021-12-14 07:35:00,,0823.4,4.99,0.00,26.4,25.5,00.0,35.5,28.1,06.4,0000.0,0016.54,0004.85,0003.52
2021-12-14 07:36:00,,0823.3,5.01,0.00,26.4,25.5,00.0,35.5,28.1,06.4,0000.0,0016.82,0004.82,0003.52
2021-12-14 07:37:00,,0823.4,4.99,0.00,26.4,25.5,00.0,35.4,28.1,06.4,0000.0,0017.16,0004.83,0003.51
2021-12-14 07:38:00,,0823.4,5.01,0.00,26.4,25.5,00.0,35.4,28.1,06.4,0000.0,0016.80,0004.82,0003.51
2021-12-14 07:39:00,,0823.4,4.99,0.00,26.4,25.5,00.0,35.4,28.1,06.4,0000.0,0017.65,0004.84,0003.50
2021-12-14 07:40:00,,0823.5,5.01,0.00,26.4,25.5,00.0,35.4,28.1,06.5,0000.0,0017.50,0004.89,0003.52
2021-12-14 07:41:00,,0823.6,5.00,0.00,26.4,25.5,00.0,35.4,28.1,06.4,0000.0,0017.60,0004.93,0003.51
2021-12-14 07:42:00,,0823.7,4.99,0.00,26.4,25.5,00.0,35.4,28.1,06.4,0000.0,0017.86,0004.95,0003.49
2021-12-14 07:43:00,,0823.6,5.00,0.00,26.4,25.5,00.0,35.4,28.1,06.5,0000.0,0018.08,0004.97,0003.49
2021-12-14 07:44:00,,0823.4,5.00,0.00,26.4,25.5,00.0,35.4,28.1,06.5,0000.0,0018.44,0004.99,0003.49
2021-12-14 07:45:00,,0823.4,5.00,0.00,26.3,25.4,00.0,35.4,28.1,06.5,0000.0,0018.32,0005.02,0003.49
2021-12-14 07:46:00,,0823.3,5.01,0.00,26.3,25.4,00.0,35.4,28.0,06.5,0000.0,0019.26,0005.07,0003.51
2021-12-14 07:47:00,,0823.4,4.98,0.00,26.3,25.4,00.0,35.4,28.0,06.6,0000.0,0019.26,0005.08,0003.52
2021-12-14 07:48:00,,0823.4,5.01,0.00,26.3,25.4,00.0,35.3,28.0,06.6,0000.0,0020.17,0005.12,0003.55
2021-12-14 07:49:00,,0823.5,5.00,0.00,26.3,25.4,00.0,35.3,28.0,06.6,0000.0,0020.48,0005.23,0003.57
2021-12-14 07:50:00,,0823.4,5.01,0.00,26.3,25.4,00.0,35.3,28.0,06.4,0000.0,0019.08,0005.21,0003.55
2021-12-14 07:51:00,,0823.4,5.00,0.00,26.3,25.4,00.0,35.3,28.0,06.2,0000.0,0018.54,0005.05,0003.48
2021-12-14 07:52:00,,0823.3,5.01,0.00,26.3,25.4,00.0,35.3,28.0,06.2,0000.0,0018.37,0004.93,0003.41
2021-12-14 07:53:00,,0823.3,4.99,0.00,26.3,25.4,00.0,35.3,28.0,06.2,0000.0,0017.18,0004.83,0003.36
2021-12-14 07:54:00,,0823.4,5.00,0.00,26.2,25.4,00.0,35.3,27.9,06.3,0000.0,0017.26,0004.72,0003.31
2021-12-14 07:55:00,,0823.4,5.00,0.00,26.2,25.3,00.0,35.3,27.9,06.3,0000.0,0015.80,0004.59,0003.25
2021-12-14 07:56:00,,0823.5,5.01,0.00,26.2,25.3,00.0,35.3,27.9,06.3,0000.0,0015.66,0004.49,0003.21
2021-12-14 07:57:00,,0823.5,4.99,0.00,26.2,25.3,00.0,35.3,28.0,06.3,0000.0,0016.00,0004.38,0003.15
2021-12-14 07:58:00,,0823.4,5.00,0.00,26.2,25.3,00.0,35.3,27.9,06.3,0000.0,0015.80,0004.29,0003.08
2021-12-14 07:59:00,,0823.3,5.00,0.00,26.2,25.3,00.0,35.2,28.0,06.3,0000.0,0014.74,0004.20,0002.98
